[[{"header":{"parameterUnit":"m.s-1","parameterCategory":1,"la1":30.2991,"la2":30.254,"lo1":-89.0895,"lo2":-89.0444,"dy":0.0017,"dx":0.0017,"nx":28,"ny":28,"refTime":"2025-05-31T21:00:00:Z","depth":0,"parameterNumber":2,"parameterNumberName":"U-component_of_WINDS"},"data":[0,0,0,0,0,0,0,0,0,0,0,0,0,0,0,0,0,0,0,0,0,0,0,0,0,0,0,0,0,0,0,0,0,0,0,0,0,0,0,0,0,0,0,0,0,0,0,0,0,0,0,0,0,0,0,0,0,0,-0.3278,-0.3277,0,-0.3194,-0.3193,-0.3192,-0.3124,-0.3124,-0.3123,-0.3122,-0.3035,-0.3034,-0.3032,0,0,0,0,0,0,0,0,0,0,0,0,0,-0.3382,-0.338,-0.3278,-0.3277,-0.3276,-0.3194,-0.3193,-0.3191,-0.3125,-0.3124,-0.3123,-0.3122,-0.3036,-0.3034,-0.3032,0,0,0,0,0,0,0,0,0,0,0,0,0,-0.3321,-0.338,-0.3279,-0.3233,-0.3228,-0.3194,-0.3193,-0.3191,-0.3125,-0.3124,-0.3123,-0.3122,-0.3036,-0.3034,-0.3031,-0.3036,0,0,-0.3024,-0.3023,0,0,0,0,0,0,0,0,-0.3324,-0.3317,-0.3241,-0.3236,-0.323,-0.3169,-0.3197,-0.3139,-0.3125,-0.3164,-0.3122,-0.3121,-0.308,-0.3074,-0.306,-0.3032,-0.3028,-0.3023,-0.3022,-0.3021,-0.302,0,0,0,0,0,0,0,-0.3329,-0.332,-0.3245,-0.324,-0.3233,-0.3216,-0.3207,-0.3186,-0.3129,-0.316,-0.3155,-0.3146,-0.3077,-0.3063,-0.3058,-0.3027,-0.3023,-0.3021,-0.302,-0.3019,-0.2997,-0.2998,0,0,0,0,0,0,-0.334,-0.3324,-0.3247,-0.3242,-0.3276,-0.3215,-0.3205,-0.3189,-0.3129,-0.3119,-0.3147,-0.3143,-0.3068,-0.3061,-0.3055,-0.3056,-0.3021,-0.3018,-0.3017,-0.2996,-0.2997,-0.2998,0,0,0,0,0,0,-0.3343,-0.3334,-0.3251,-0.3282,-0.327,-0.3215,-0.3198,-0.3188,-0.3174,-0.3119,-0.3108,-0.3143,-0.3067,-0.3058,-0.3041,-0.3052,-0.3017,-0.3015,-0.2995,-0.2997,-0.2998,-0.3058,0,0,0,0,0,0,-0.3346,-0.3335,-0.3336,-0.3282,-0.3269,-0.3239,-0.3199,-0.3187,-0.317,-0.3164,-0.3112,-0.3103,-0.3065,-0.3045,-0.3038,-0.3048,-0.3013,-0.2994,-0.2996,-0.2997,-0.3055,-0.3062,-0.3067,0,0,0,0,0,-0.335,-0.3357,-0.3337,-0.3328,-0.3269,-0.324,-0.3232,-0.3189,-0.3171,-0.3172,-0.3136,-0.3104,-0.3052,-0.3044,-0.3036,-0.3044,-0.2993,-0.2995,-0.2997,-0.3052,-0.306,-0.3067,0,0,0,0,0,0,-0.3413,-0.3349,-0.3326,-0.3316,-0.3284,-0.3229,-0.3228,-0.3199,-0.3171,-0.3167,-0.3115,-0.3104,-0.3092,-0.3066,-0.3059,-0.3045,-0.3018,-0.3019,-0.3063,-0.307,-0.3076,-0.3083,-0.3011,0,0,0,0,0,-0.3426,-0.3408,-0.3352,-0.3349,-0.3334,-0.3284,-0.327,-0.3239,-0.3204,-0.319,-0.3153,-0.312,-0.3096,-0.3082,-0.3056,-0.3051,-0.3039,-0.3053,-0.3059,-0.3064,-0.3066,-0.3061,-0.3067,-0.3006,-0.3005,-0.3005,0,0,-0.3452,-0.3415,-0.3406,-0.336,-0.3332,-0.3314,-0.3273,-0.3256,-0.3242,-0.3187,-0.3169,-0.3141,-0.3101,-0.309,-0.3083,-0.3068,-0.308,-0.3067,-0.3072,-0.307,-0.3064,-0.307,-0.3075,-0.3007,-0.3007,-0.3006,0,0,-0.3491,-0.3461,-0.3454,-0.3427,-0.3385,-0.3351,-0.335,-0.3299,-0.3279,-0.3259,-0.3218,-0.3201,-0.3161,-0.3134,-0.3115,-0.3143,-0.3113,-0.3137,-0.3169,-0.3165,-0.317,-0.3174,-0.3184,-0.3189,-0.3138,-0.3138,-0.3138,0,-0.3529,-0.35,-0.3455,-0.344,-0.3421,-0.3371,-0.3364,-0.334,-0.3292,-0.328,-0.3263,-0.3212,-0.3181,-0.3163,-0.317,-0.3156,-0.3153,-0.3143,-0.3173,-0.3176,-0.3179,-0.3189,-0.3193,-0.3141,-0.3141,-0.3141,-0.314,0,-0.3549,-0.353,-0.353,-0.3485,-0.3466,-0.3456,-0.3408,-0.3395,-0.3366,-0.3335,-0.3316,-0.3277,-0.3243,-0.3237,-0.3209,-0.3215,-0.3207,-0.3182,-0.3154,-0.3189,-0.3197,-0.3201,-0.3146,-0.3145,-0.3144,-0.3143,0,0,-0.3626,-0.3556,-0.3557,-0.3536,-0.3485,-0.347,-0.3457,-0.3424,-0.3414,-0.3382,-0.337,-0.3337,-0.3314,-0.3293,-0.3261,-0.3258,-0.3284,-0.3233,-0.3232,-0.3245,-0.3289,-0.3308,-0.3313,-0.3263,-0.3264,-0.3264,-0.3292,0,-0.3657,-0.3631,-0.359,-0.3578,-0.356,-0.3512,-0.3501,-0.3469,-0.3439,-0.342,-0.3386,-0.3364,-0.3335,-0.3322,-0.3317,-0.3282,-0.3292,-0.3279,-0.3252,-0.3251,-0.3264,-0.3317,-0.3337,-0.3366,-0.3295,-0.3296,-0.3296,0,-0.369,-0.3661,-0.3648,-0.3599,-0.359,-0.3581,-0.3548,-0.353,-0.3492,-0.3471,-0.3447,-0.3413,-0.3397,-0.3371,-0.3348,-0.334,-0.3327,-0.3308,-0.3308,-0.3304,-0.3276,-0.3315,-0.3374,-0.3379,-0.3301,-0.33,-0.33,0,-0.3748,-0.3706,-0.3692,-0.3676,-0.3619,-0.3614,-0.3589,-0.3551,-0.3534,-0.3505,-0.3493,-0.3463,-0.3446,-0.3423,-0.3382,-0.3366,-0.3364,-0.3334,-0.3346,-0.3347,-0.3348,-0.3348,-0.3406,-0.3338,-0.3338,-0.3338,-0.3338,0,-0.3787,-0.3781,-0.3718,-0.371,-0.3701,-0.3653,-0.3646,-0.3618,-0.3584,-0.3569,-0.3526,-0.3513,-0.3458,-0.3439,-0.3406,-0.3393,-0.3385,-0.3368,-0.3359,-0.3372,-0.3375,-0.3363,-0.336,-0.3339,-0.3339,-0.3339,-0.3339,0,-0.385,-0.3808,-0.379,-0.3738,-0.3724,-0.372,-0.3675,-0.3665,-0.3633,-0.3615,-0.3608,-0.3558,-0.3533,-0.3489,-0.3451,-0.3429,-0.3423,-0.3408,-0.3436,-0.343,-0.3445,-0.3444,-0.3497,-0.3502,-0.3431,-0.3432,-0.3433,0,-0.3879,-0.3873,-0.382,-0.3807,-0.3785,-0.3764,-0.3747,-0.37,-0.3683,-0.3641,-0.3636,-0.3608,-0.3583,-0.3546,-0.3505,-0.3477,-0.3461,-0.3481,-0.3456,-0.347,-0.3462,-0.3463,-0.3462,-0.3487,-0.3488,-0.3489,-0.349,0,-0.3933,-0.3913,-0.3889,-0.3859,-0.384,-0.3813,-0.3784,-0.3776,-0.3722,-0.3706,-0.3681,-0.3661,-0.3623,-0.3596,-0.3562,-0.3536,-0.3504,-0.3498,-0.3499,-0.3512,-0.3529,-0.3521,-0.3452,-0.3497,-0.3496,-0.3496,-0.3495,-0.3495,-0.398,-0.3973,-0.3935,-0.391,-0.3884,-0.3858,-0.3846,-0.3813,-0.3791,-0.3756,-0.3729,-0.3706,-0.3669,-0.3619,-0.3596,-0.3577,-0.3562,-0.3564,-0.3564,-0.3566,-0.3571,-0.3532,-0.357,-0.357,-0.357,-0.357,-0.3569,0,-0.4033,-0.4006,-0.3984,-0.3946,-0.3927,-0.3898,-0.3865,-0.3851,-0.3831,-0.3799,-0.3775,-0.3746,-0.3719,-0.3677,-0.3647,-0.364,-0.3625,-0.3634,-0.3634,-0.3629,-0.3586,-0.3588,-0.3647,-0.3647,-0.3647,-0.3647,-0.3647,-0.3647,-0.4059,-0.4045,-0.402,-0.3993,-0.3965,-0.3942,-0.3926,-0.3902,-0.3876,-0.3846,-0.3823,-0.3796,-0.376,-0.3727,-0.3702,-0.369,-0.3681,-0.3695,-0.3679,-0.364,-0.3632,-0.3625,-0.3627,-0.3694,-0.3694,-0.3724,-0.3725,-0.3725]},{"header":{"parameterUnit":"m.s-1","parameterCategory":1,"la1":30.2991,"la2":30.254,"lo1":-89.0895,"lo2":-89.0444,"dy":0.0017,"dx":0.0017,"nx":28,"ny":28,"refTime":"2025-05-31T21:00:00:Z","depth":0,"parameterNumber":3,"parameterNumberName":"V-component_of_WINDS"},"data":[0,0,0,0,0,0,0,0,0,0,0,0,0,0,0,0,0,0,0,0,0,0,0,0,0,0,0,0,0,0,0,0,0,0,0,0,0,0,0,0,0,0,0,0,0,0,0,0,0,0,0,0,0,0,0,0,0,0,0.1952,0.1952,0,0.1969,0.1969,0.197,0.1966,0.1965,0.1965,0.1965,0.1983,0.1984,0.1985,0,0,0,0,0,0,0,0,0,0,0,0,0,0.1914,0.1915,0.1952,0.1952,0.1952,0.1969,0.1969,0.197,0.1966,0.1965,0.1965,0.1964,0.1983,0.1984,0.1985,0,0,0,0,0,0,0,0,0,0,0,0,0,0.1931,0.1915,0.1952,0.1952,0.1952,0.1969,0.1969,0.197,0.1966,0.1965,0.1965,0.1964,0.1983,0.1984,0.1985,0.2003,0,0,0.1989,0.1989,0,0,0,0,0,0,0,0,0.193,0.1932,0.1952,0.1952,0.1952,0.1965,0.1963,0.1981,0.1966,0.1961,0.1965,0.1964,0.1978,0.1979,0.1984,0.2003,0.2004,0.1989,0.199,0.199,0.199,0,0,0,0,0,0,0,0.1929,0.1932,0.1959,0.1952,0.1952,0.1951,0.1953,0.1966,0.1972,0.1961,0.1961,0.1963,0.1978,0.1982,0.1984,0.2005,0.1989,0.199,0.1991,0.1991,0.2037,0.2038,0,0,0,0,0,0,0.1928,0.1931,0.1958,0.1959,0.194,0.1952,0.1954,0.1961,0.1972,0.1973,0.1963,0.1963,0.1981,0.1983,0.1985,0.2004,0.199,0.1991,0.1992,0.2037,0.2038,0.2038,0,0,0,0,0,0,0.1927,0.193,0.1957,0.1945,0.1948,0.1954,0.1961,0.1962,0.1967,0.1973,0.1974,0.1967,0.198,0.1983,0.1998,0.2005,0.1992,0.1993,0.2036,0.2037,0.2038,0.2044,0,0,0,0,0,0,0.1926,0.193,0.1937,0.1945,0.1949,0.197,0.1962,0.1963,0.1969,0.1968,0.1977,0.1978,0.198,0.1996,0.1999,0.2006,0.1994,0.2036,0.2037,0.2038,0.2044,0.2045,0.2047,0,0,0,0,0,0.1924,0.1939,0.1937,0.194,0.1958,0.1971,0.1973,0.1974,0.1969,0.1976,0.198,0.1978,0.2004,0.1997,0.2001,0.2009,0.2035,0.2036,0.2038,0.2043,0.2045,0.2047,0,0,0,0,0,0,0.1932,0.194,0.1938,0.1956,0.1962,0.197,0.1979,0.1977,0.1986,0.1985,0.1987,0.1989,0.2003,0.2008,0.2,0.2025,0.2019,0.2021,0.2022,0.2024,0.2025,0.2024,0.1995,0,0,0,0,0,0.1935,0.1945,0.1952,0.1966,0.197,0.1973,0.1979,0.198,0.1987,0.199,0.1995,0.2002,0.2012,0.2018,0.2028,0.2044,0.2046,0.2051,0.2053,0.2054,0.2056,0.2063,0.2065,0.2042,0.2042,0.2042,0,0,0.1943,0.1948,0.1955,0.1968,0.1973,0.1983,0.1976,0.1987,0.1994,0.1992,0.2005,0.2009,0.2017,0.2033,0.204,0.2037,0.2062,0.2056,0.2057,0.2057,0.2064,0.2067,0.2069,0.2043,0.2042,0.2042,0,0,0.1961,0.1967,0.1979,0.1984,0.1992,0.1994,0.1997,0.2004,0.2006,0.202,0.2018,0.2026,0.2043,0.2048,0.2053,0.2072,0.207,0.2075,0.2083,0.209,0.2092,0.2094,0.2099,0.2101,0.2076,0.2076,0.2076,0,0.197,0.1984,0.1985,0.1996,0.2001,0.1999,0.201,0.2015,0.2026,0.2029,0.2026,0.2045,0.2051,0.2066,0.2071,0.2075,0.2078,0.2074,0.2092,0.2093,0.2095,0.21,0.2102,0.2077,0.2077,0.2077,0.2077,0,0.1993,0.2003,0.2012,0.2021,0.2027,0.2038,0.204,0.2047,0.2046,0.2049,0.2062,0.2068,0.2077,0.2081,0.2082,0.2097,0.2094,0.2091,0.2085,0.2098,0.2102,0.2104,0.2078,0.2077,0.2077,0.2077,0,0,0.2017,0.2026,0.2029,0.2032,0.204,0.2047,0.2058,0.2066,0.2071,0.2078,0.2086,0.21,0.2096,0.2102,0.2103,0.2109,0.2121,0.2105,0.2105,0.2107,0.2136,0.2138,0.214,0.212,0.2121,0.2121,0.2135,0,0.2035,0.2053,0.2053,0.2069,0.2078,0.2075,0.2084,0.2089,0.2091,0.2099,0.2101,0.211,0.2106,0.2109,0.2115,0.2118,0.2127,0.2118,0.2127,0.2127,0.2124,0.2143,0.2145,0.2158,0.2137,0.2138,0.2138,0,0.2058,0.2065,0.2081,0.2086,0.209,0.2098,0.2105,0.2112,0.2118,0.2119,0.2124,0.2124,0.2134,0.2127,0.214,0.2134,0.2138,0.2139,0.214,0.214,0.2133,0.2142,0.2163,0.2164,0.2141,0.2141,0.2141,0,0.2072,0.2085,0.2096,0.2099,0.2106,0.2111,0.2114,0.2119,0.2124,0.213,0.2133,0.2141,0.2145,0.2151,0.2152,0.2147,0.2165,0.2159,0.2165,0.2165,0.2169,0.2168,0.2188,0.2173,0.2173,0.2173,0.2173,0,0.2091,0.2101,0.2102,0.2109,0.212,0.212,0.2131,0.2133,0.2138,0.2144,0.2143,0.215,0.2151,0.2158,0.2159,0.2169,0.2171,0.2172,0.2172,0.2171,0.2171,0.2173,0.2172,0.2173,0.2173,0.2173,0.2173,0,0.2108,0.2109,0.2121,0.2125,0.2127,0.2134,0.2138,0.2144,0.2146,0.2155,0.2157,0.216,0.2167,0.2169,0.2179,0.2179,0.219,0.219,0.2188,0.2188,0.2194,0.2193,0.2216,0.2218,0.2202,0.2202,0.2202,0,0.2119,0.2127,0.2132,0.2136,0.2138,0.2146,0.215,0.215,0.2155,0.2161,0.2166,0.2174,0.218,0.2192,0.2195,0.2202,0.2201,0.2208,0.2202,0.2201,0.2199,0.2198,0.2199,0.2209,0.2209,0.2209,0.221,0,0.2139,0.2139,0.2145,0.2151,0.2156,0.2161,0.2166,0.2169,0.217,0.2176,0.2183,0.2187,0.2196,0.2203,0.221,0.2213,0.2211,0.2212,0.2213,0.2212,0.221,0.221,0.219,0.2211,0.2211,0.2211,0.2211,0.2211,0.2153,0.2158,0.2162,0.2169,0.2172,0.2176,0.2182,0.2183,0.219,0.2196,0.2196,0.2204,0.2209,0.2217,0.222,0.2226,0.2224,0.2227,0.2227,0.2228,0.2228,0.221,0.2228,0.2228,0.2228,0.2228,0.2228,0,0.2171,0.2173,0.2179,0.2185,0.219,0.2187,0.2192,0.2196,0.2203,0.2207,0.2213,0.222,0.2227,0.223,0.2236,0.224,0.2239,0.2242,0.2241,0.2241,0.223,0.2227,0.2242,0.2242,0.2242,0.2242,0.2242,0.2242,0.2181,0.219,0.219,0.22,0.2203,0.221,0.2212,0.2216,0.2219,0.2228,0.2233,0.2234,0.2238,0.2244,0.225,0.225,0.2252,0.2255,0.2255,0.2244,0.2242,0.2241,0.2238,0.2255,0.2255,0.2266,0.2266,0.2266]}]]